Weather History for Sedalia, MO

Change the Weather History Date:

Thursday, July 4, 2013

  Actual Average Record
Temperature  
Mean Temperature 73 °F 78 °F  
Max Temperature 86 °F 88 °F 103 °F (1954)
Min Temperature 60 °F 69 °F 52 °F (1940)
Degree Days  
Heating Degree Days 0 0  
Month to date heating degree days 0 0  
Since 1 June heating degree days 9 6  
Since 1 July heating degree days 0 0  
Cooling Degree Days 8 14  
Month to date cooling degree days 28 53  
Year to date cooling degree days 483 496  
Since 1 June cooling degree days 335 357  
Growing Degree Days 22 (Base 50)    
Moisture  
Dew Point 59 °F    
Average Humidity 64    
Maximum Humidity 90    
Minimum Humidity 37    
Precipitation  
Precipitation T in 0.13 in 2.00 in (1984)
Month to date precipitation 0.43 0.53  
Year to date precipitation 25.84 20.77  
Sea Level Pressure  
Sea Level Pressure 30.02 in    
Wind  
Wind Speed 5 mph (South)    
Max Wind Speed 15 mph    
Max Gust Speed 25 mph    
Visibility 10 miles    
Events Thunderstorm    
T = Trace of Precipitation, MM = Missing Value Source: NWS Daily Summary

Daily Weather History Graph

Daily Weather History Graph

Search for Another Location

Airport:

Trip Planner

Search our weather history database for the weather conditions in past years. The results will help you decide how hot, cold, wet, or windy it might be!

Date:

Astronomy

Jul. 04, 2013 Rise Set
Actual Time 5:53 AM CDT 8:40 PM CDT
Civil Twilight 5:21 AM CDT 9:12 PM CDT
Nautical Twilight 4:41 AM CDT 9:52 PM CDT
Astronomical Twilight 3:56 AM CDT 10:37 PM CDT
Moon 3:09 AM CDT (7/4) 5:46 PM CDT (7/4)
Length of Visible Light 15h 50m
Length of Day
14h 47m
Waning Crescent, 11% of the Moon is Illuminated
Jul 4
Waning Crescent
Jul 8
New
Jul 15
First Quarter
Jul 22
Full
Jul 29
Last Quarter

Hourly Weather History & Observations

Time (CDT) Temp. Heat Index Dew Point Humidity Pressure Visibility Wind Dir Wind Speed Gust Speed Precip Events Conditions
12:53 AM 64.0 °F - 57.0 °F 78% 30.03 in 10.0 mi South 5.8 mph - N/A   Clear
1:53 AM 61.0 °F - 57.0 °F 87% 30.03 in 10.0 mi South 6.9 mph - N/A   Clear
2:53 AM 64.0 °F - 57.9 °F 80% 30.02 in 10.0 mi South 4.6 mph - N/A   Clear
3:53 AM 64.0 °F - 57.9 °F 80% 30.02 in 10.0 mi SSW 4.6 mph - N/A   Clear
4:53 AM 61.0 °F - 57.9 °F 90% 30.03 in 10.0 mi Calm Calm - N/A   Clear
5:53 AM 60.1 °F - 57.0 °F 90% 30.03 in 9.0 mi East 4.6 mph - N/A   Clear
6:53 AM 62.1 °F - 59.0 °F 90% 30.05 in 9.0 mi Calm Calm - N/A   Clear
7:53 AM 68.0 °F - 61.0 °F 78% 30.06 in 10.0 mi South 4.6 mph - N/A   Clear
8:53 AM 72.0 °F - 62.1 °F 71% 30.07 in 10.0 mi South 5.8 mph - N/A   Clear
9:53 AM 75.9 °F - 62.1 °F 62% 30.06 in 10.0 mi SSW 4.6 mph - N/A   Clear
10:53 AM 80.1 °F 81.2 °F 62.1 °F 54% 30.06 in 10.0 mi SW 6.9 mph - N/A   Clear
11:53 AM 81.0 °F 81.7 °F 61.0 °F 50% 30.06 in 10.0 mi SW 3.5 mph - N/A   Clear
12:53 PM 82.9 °F 83.2 °F 60.1 °F 46% 30.05 in 10.0 mi South 6.9 mph - N/A   Clear
1:53 PM 84.0 °F 84.0 °F 60.1 °F 44% 30.03 in 10.0 mi Variable 5.8 mph - N/A   Scattered Clouds
2:53 PM 84.9 °F 83.7 °F 55.9 °F 37% 30.01 in 10.0 mi South 5.8 mph - N/A   Clear
3:53 PM 84.9 °F 83.9 °F 57.0 °F 38% 30.00 in 10.0 mi South 6.9 mph - N/A   Clear
4:44 PM 84.2 °F 83.5 °F 57.2 °F 40% 30.01 in 10.0 mi SSW 6.9 mph - N/A Thunderstorm Clear
4:53 PM 84.9 °F 83.7 °F 55.9 °F 37% 30.00 in 10.0 mi SW 5.8 mph - N/A Thunderstorm Clear
5:20 PM 84.2 °F 83.5 °F 57.2 °F 40% 30.01 in 10.0 mi SSW 6.9 mph - N/A   Clear
5:53 PM 84.9 °F 83.6 °F 55.0 °F 36% 29.98 in 10.0 mi Calm Calm - N/A   Clear
6:53 PM 80.1 °F 81.1 °F 61.0 °F 52% 29.99 in 10.0 mi East 11.5 mph 17.3 mph N/A   Clear
7:53 PM 75.9 °F - 60.1 °F 58% 29.99 in 10.0 mi Calm Calm - 0.00 in   Mostly Cloudy
8:53 PM 73.0 °F - 61.0 °F 66% 29.99 in 10.0 mi East 4.6 mph - N/A   Clear
9:53 PM 71.1 °F - 61.0 °F 70% 30.00 in 10.0 mi SE 4.6 mph - N/A   Clear
10:53 PM 70.0 °F - 60.1 °F 71% 30.01 in 10.0 mi SE 6.9 mph - N/A   Clear
11:53 PM 68.0 °F - 59.0 °F 73% 30.01 in 10.0 mi SSE 5.8 mph - N/A   Clear